USA 62

operational
NORAD ID: 20692 Int'l Des: 1990-050 Owner: NRO/NRL Country: US
LEO

关于 USA 62

正在加载描述...

实时位置

正在加载3D地球...

即将过境

高度历史

Altitude vs Time

uPlot chart will show altitude changes over time

两行轨道根数

1 20692U 90050D 26062.46248725 .00004775 00000-0 34226-3 0 9990
2 20692 63.2961 135.4773 0877761 82.6208 287.3600 13.63391695 90292
Epoch: Mar 3, 2026 • Age: 17 hours

当前状态

高度 556.7 km
速度 7.82 km/s
星下点 31.16°N, 102.92°E
发射日期 Jun 8, 1990
运行时间 35.7 years
类型 military

技术详情

分类 Payload
质量 400.00 kg
干质量 400.00 kg
总质量 400.00 kg
长度 1.00 m
直径 1.00 m
跨度 10.00 m
形状 Box + Ant
制造商 NRL
平台类型 NOSS B SSU
阶段状态 In Orbit
所有者/国家 NRO/NRL/US

大型星座

Loading constellations...